www.pogodaiklimat.ru

Погода и климат >> Архив погоды >> Аргентина >> Mendoza


ПОГОДА в Mendoza

  • Прогноз погоды в Mendoza
  • Монитор погоды в Mendoza
  • Климат города

АРХИВ ПОГОДЫ в Mendoza

Время (UTC), дата Ветер
(напр.,м/с)
 
Видим.   Явления Облачность Т
(С)
Тd
(С)
f
(%)
Тe
(С)
Тes
(С)
Комфортность P
(гПа)
Po
(гПа)
Тmin
(С)
Tmax
(С)
R
(мм)
S
(см)
03 21.03 З 3 15 км 4/3 1500 м
[Sc Ac As]
+17.2 +12.3 73 +17 +17 1017.9 938.6
06 21.03 штиль 0 15 км 1/0
[Ac As]
+16.7 +12.1 74 +17 +17 1016.5 937.6
09 21.03 штиль 0 15 км ясно +14.3 +9.8 74 +14 +14 1016.2 936.9
12 21.03 штиль 0 15 км 1/0
[Ac As]
+15.6 +10.5 72 +15 +18 1017.8 938.1 +11.8 +19.4
15 21.03 В 2 15 км 1/1 1500 м
[Sc]
+22.6 +9.8 44 +24 +36 комфорт 1016.6 937.6
18 21.03 СВ 2 15 км 3/3 1500 м
[Sc]
+26.0 +9.0 34 +26 +36 жарко 1014.4 936.0
21 21.03 СВ 3 15 км 4/4 1500 м
[Cu Sc]
+27.0 +6.3 27 +26 +28 жарко 1013.2 934.6
00 22.03 штиль 0 15 км 1/0
[Ac As]
+22.4 +10.8 48 +24 +24 комфорт 1014.8 935.7 +15.0 +28.2
03 22.03 штиль 0 15 км 1/0
[Ac As]
+18.6 +11.3 62 +19 +19 1015.9 937.2
06 22.03 Ю 3 15 км 1/0
[Ac As]
+17.8 +11.0 64 +18 +18 1015.4 937.0
09 22.03 штиль 0 15 км 1/0
[Ac As]
+16.8 +10.2 65 +17 +17 1015.4 937.0
12 22.03 штиль 0 15 км ясно +17.5 +10.6 64 +18 +20 1017.4 938.4 +13.8 +22.4
15 22.03 В 2 15 км ясно +22.0 +12.4 54 +24 +37 комфорт 1017.3 938.4
18 22.03 ЮВ 2 15 км 1/1 1500 м
[Cu Sc]
+26.4 +13.8 46 +29 +41 жарко 1013.7 935.4
21 22.03 СЗ 1 15 км 3/3 1500 м
[Sc Ac As]
+28.2 +9.9 32 +28 +30 жарко 1011.8 933.8
00 23.03 ЮЗ 1 15 км 4/4 1200 м
[Sc Ac As]
+24.8 +13.1 48 +27 +27 жарко 1013.2 934.8 +17.4 +29.0
03 23.03 штиль 0 15 км 4/4 1200 м
[Sc Ac As]
+22.6 +13.2 55 +26 +26 жарко 1014.1 935.8
06 23.03 Ю 2 15 км ясно +20.6 +11.9 57 +23 +23 комфорт 1012.8 935.0
09 23.03 штиль 0 15 км ясно +17.8 +12.2 70 +18 +18 1012.0 934.2
12 23.03 Ю 2 15 км ясно +19.4 +12.5 64 +21 +23 комфорт 1013.3 935.0 +15.9 +24.8
15 23.03 В 3 15 км 1/1 1500 м
[Cu hum]
+25.6 +12.1 43 +27 +37 жарко 1012.4 934.8
18 23.03 СВ 5 15 км 1/1 1500 м
[Cu hum]
+29.8 +9.9 29 +30 +36 жарко 1009.2 932.1
21 23.03 СВ 3 15 км 1/1 1500 м
[Sc]
+30.8 +9.5 27 +30 +32 жарко 1007.6 930.4
00 24.03 Ю 2 15 км 3/1 1500 м
[Sc Ac As]
+25.4 +13.1 46 +27 +27 жарко 1009.5 931.7 +16.4 +31.6
03 24.03 ЮЗ 2 15 км 1/0
[Ac As]
+24.0 +12.5 49 +26 +26 жарко 1010.0 932.8
09 24.03 штиль 0 15 км гроза без осадков 5/4 1350 м
[Cb cap Ac As]
+20.0 +13.6 67 +22 +22 комфорт 1008.1 931.2
12 24.03 штиль 0 15 км {гроза} 6/4 1200 м
[Cu med, cong Ac As]
+21.2 +13.3 61 +24 +25 комфорт 1009.9 932.2 +18.2 +26.0
15 24.03 В 2 15 км 3/3 1200 м
[Cb calv]
+26.5 +13.9 46 +29 +38 жарко 1008.5 931.4
18 24.03 С 6 15 км гроза без осадков 6/6 1200 м
[Cb cap]
+29.3 +11.5 33 +30 +32 жарко 1005.6 928.6
21 24.03 Ю 2 15 км {гроза} 6/6 1200 м
[Cb calv]
+30.3 +9.7 28 +30 +31 жарко 1004.7 928.0
00 25.03 С 2 15 км зарница {гроза} 1/1 1500 м
[Cb cap]
+24.0 +13.7 53 +26 +26 жарко 1006.2 928.6 +20.7 +31.3 0.0
03 25.03 штиль 0 15 км 1/0
[Ac As]
+21.5 +13.6 61 +24 +24 комфорт 1007.4 930.2
06 25.03 штиль 0 15 км 4/4 1500 м
[Sc]
+19.4 +13.3 68 +21 +21 комфорт 1005.8 928.8
09 25.03 ЮЗ 1 15 км ясно +17.6 +13.7 78 +19 +19 1005.5 928.4
12 25.03 Ю 2 15 км 4/4 1500 м
[Cb calv]
+19.1 +11.3 61 +21 +22 комфорт 1008.0 930.1 +17.1 +24.0 0.0
15 25.03 В 3 15 км 4/4 1500 м
[Cb calv]
+25.1 +15.9 57 +28 +35 жарко 1007.3 929.8
18 25.03 ЮВ 3 15 км 6/5 1200 м
[Cb cap Ci ing]
+27.1 +16.1 51 +30 +36 душно 1005.1 927.8
21 25.03 ЮЗ 1 15 км 4/4 1200 м
[Cb calv Ci ing]
+29.9 +13.3 36 +31 +33 жарко 1001.8 924.9
00 26.03 ЮВ 8 15 км зарница 5/5 1200 м
[Cb cap]
+24.6 +15.5 57 +28 +28 душно 1005.5 927.8 +19.1 +30.5
03 26.03 Ю 2 15 км зарница 5/5 1350 м
[Cb cap]
+22.8 +15.0 61 +27 +27 душно 1007.4 930.2
06 26.03 Ю 2 15 км 5/5 1200 м
[Sc]
+21.7 +14.8 65 +25 +25 комфорт 1007.1 930.0
09 26.03 С 2 15 км ясно +18.5 +14.1 76 +20 +20 1007.4 930.2
12 26.03 СЗ 2 15 км ясно +19.3 +14.8 75 +21 +23 комфорт 1009.0 931.0 +17.4 +24.6
15 26.03 СЗ 3 15 км 4/4 900 м
[Cu hum]
+25.5 +15.4 54 +29 +35 душно 1007.8 930.6
18 26.03 СВ 4 15 км 5/5 900 м
[Cu med, cong]
+28.1 +14.8 44 +31 +35 душно 1005.8 928.9
21 26.03 В 3 15 км 8/4 1200 м
[Sc Cs]
+28.4 +13.4 40 +30 +31 жарко 1005.2 928.0
00 27.03 штиль 0 15 км зарница 6/6 1050 м
[Cb cap]
+24.5 +15.9 59 +28 +28 душно 1007.5 929.7 +19.3 +29.7
03 27.03 СВ 2 10 км гроза, ливневой дождь 6/6 1050 м
[Cb cap]
+21.0 +17.9 82 +26 +26 душно 1009.6 932.0
06 27.03 штиль 0 15 км зарница {гроза} 6/6 1050 м
[Cb cap]
+20.0 +17.6 86 +23 +23 комфорт 1009.0 931.7 2
09 27.03 штиль 0 15 км 10/10 1050 м
[Sc]
+20.3 +17.9 86 +23 +23 комфорт 1009.1 931.8
12 27.03 Ю 2 15 км 10/10 900 м
[Sc]
+21.4 +16.1 72 +25 +25 комфорт 1011.5 933.7 +19.0 +24.9 2
15 27.03 В 4 15 км 1/1 1200 м
[Cu med, cong Ac As]
+23.8 +18.3 71 +28 +36 душно 1011.5 933.6
18 27.03 В 4 15 км 5/5 1200 м
[Cu med, cong]
+27.0 +17.4 56 +31 +36 душно 1009.3 931.8
21 27.03 В 3 15 км 4/4 1200 м
[Cu med, cong Ac As]
+29.1 +17.8 51 +34 +35 очень
душно
1007.0 930.0
00 28.03 СВ 4 15 км зарница 6/6 1350 м
[Cb cap Ac cuf]
+25.2 +17.4 62 +29 +29 душно 1008.1 930.6 +21.4 +29.8

 

Местоположение метеостанции Mendoza (Аргентина): широта -32.83 долгота -68.78 высота над уровнем моря 704 м.

В архиве по умолчанию представлена погода в Mendoza за последнюю неделю. Архивные данные за месяц целиком и за предыдущие месяцы, начиная с января 2011 года, Вы можете получить, выбрав интересующий диапазон дат из раскрывающегося списка и нажав кнопку "Ввод!".

Внимание! Время в таблицах - всемирное. Для получения местного времени необходимо прибавить поправку, которая в Mendoza равна -3 ч.

Смотрите также архив погоды в соседних городах и на ближайших метеорологических станциях:

Погода в San Martin (Аргентина) (44 км)
Погода в San Juan (Аргентина) (163 км)
Погода в Santiago (Чили) (189 км)
Погода в Pudahuel (Чили) (196 км)
Погода в San Rafael (Аргентина) (198 км)
Погода в San Luis (Аргентина) (232 км)
Погода в Punta Angeles (Чили) (268 км)
Погода в San Antonio (Чили) (275 км)
Погода в Santo Domingo (Чили) (279 км)
Погода в Malargue (Аргентина) (306 км)

Пояснения к столбцам:

Ветер - указаны скорость ветра в м/с - средняя за 10 мин, порывы в срок и между сроками (в фигурных скобках) и направление, откуда дует ветер: С - северный, СВ - северо-восточный, В - восточный, ЮВ - юго-восточный, Ю - южный, ЮЗ - юго-западный, З - западный, СЗ - северо-западный.
Видимость - горизонтальная дальность видимости в метрах или километрах. При видимости от 1 до 10 км при отсутствии осадков обычно наблюдается дымка, при ухудшении видимости до 1 км и менее - туман. В сухую погоду видимость может ухудшаться дымом, пылью или мглою.
Явления - указаны атмосферные явления, наблюдавшиеся в срок или в последний час перед сроком; фигурными скобками обозначены явления, наблюдавшиеся между сроками (за 1-3 часа до срока); квадратными скобками обозначены град или гололедные отложения с указанием их диаметра в мм.
Облачность - указаны через наклонную черту общая и нижняя облачность в баллах и высота нижней границы облаков в метрах; квадратными скобками обозначены формы облаков: Ci - перистые, Cs - перисто-слоистые, Cc - перисто-кучевые, Ac - высококучевые, As - высокослоистые, Sc - слоисто-кучевые, Ns - слоисто-дождевые, Cu - кучевые, Cb - кучево-дождевые. Подробнее классификацию облаков см. в Атласе облаков (PDF).
T - Температура воздуха - температура, измеренная на высоте 2 м над землей.
Td - Температура точки росы - температура, при понижении до которой содержащийся в воздухе водяной пар достигнет насыщения.
f - Относительная влажность воздуха - влажноcть воздуха, измеренная на высоте 2 м над землей.
Te - Эффективная температура - температура, которую ощущает одетый по сезону человек в тени. Характеристика душности погоды. При расчете учитывается влияние влажности воздуха и скорости ветра на теплоощущения человека.
Tes - Эффективная температура на солнце - температура, которую ощущает человек, с поправкой на солнечный нагрев. Характеристика знойности погоды. Зависит от высоты солнца над горизонтом, облачности и скорости ветра. Ночью, в пасмурную погоду, а также при ветре 12 м/с и более поправка равна нулю.
P - Атмосферное давление - приведенное к уровню моря атмосферное давление.
Po - Атмосферное давление - измеренное на уровне метеостанции атмосферное давление.
Tmin - Минимальная температура - минимум температуры воздуха на высоте 2 м над землей.
Tmax - Максимальная температура - максимум температуры воздуха на высоте 2 м над землей.
R - Количество осадков - Количество выпавших осадков, мм. При наведении курсора мыши на число - период времени, за который выпало указанное количество осадков.
S - Снежный покров - Высота снежного покрова, см. При наведении курсора мыши на число - состояние снежного покрова и степень покрытия местности в баллах.